Colby, KS

3:37 PM CST on January 19, 2018 (GMT -0600)
Shaltz

Weather History for KCBK - June, 2013

Change the Weather History Date:

Friday, June 28, 2013

  Actual Average (KGLD) Record (KGLD)
Temperature  
Mean Temperature 79 °F -  
Max Temperature 96 °F 90 °F 106 °F (1970)
Min Temperature 62 °F 59 °F 43 °F (1985)
Cooling Degree Days 14    
Growing Degree Days 29 (Base 50)    
Moisture  
Dew Point 60 °F    
Average Humidity 57    
Maximum Humidity 100    
Minimum Humidity 26    
Precipitation  
Precipitation 0.00 in - - ()
Sea Level Pressure  
Sea Level Pressure 30.15 in    
Wind  
Wind Speed 6 mph (North)    
Max Wind Speed 20 mph    
Max Gust Speed 23 mph    
Visibility 10 miles    
Events      
Averages and records for this station are not official NWS values.
T = Trace of Precipitation, MM = Missing Value Source: NWS Daily Summary

Daily Weather History Graph

Daily Weather History Graph

Search for Another Location

Airport or City:

Trip Planner

Search our weather history database for the weather conditions in past years. The results will help you decide how hot, cold, wet, or windy it might be!

Date:

Astronomy

Jun. 28, 2013 Rise Set
Actual Time 6:19 AM CDT 9:15 PM CDT
Civil Twilight 5:47 AM CDT 9:47 PM CDT
Nautical Twilight 5:06 AM CDT 10:28 PM CDT
Astronomical Twilight 4:19 AM CDT 11:15 PM CDT
Moon 12:15 AM CDT (6/28) 12:27 PM CDT (6/28)
Length of Visible Light 16h 00m
Length of Day
14h 55m
Waning Gibbous, 66% of the Moon is Illuminated
Jun 28
Waning Gibbous
Jun 29
Last Quarter
Jul 8
New
Jul 15
First Quarter
Jul 22
Full

Hourly Weather History & Observations

Time (CDT) Temp. Heat Index Dew Point Humidity Pressure Visibility Wind Dir Wind Speed Gust Speed Precip Events Conditions
12:15 AM 69.8 °F - 64.4 °F 83% 30.19 in 10.0 mi Calm Calm - N/A   Clear
12:35 AM 69.8 °F - 64.4 °F 83% 30.19 in 10.0 mi Calm Calm - N/A   Clear
12:55 AM 64.4 °F - 62.6 °F 94% 30.19 in 10.0 mi SW 4.6 mph - N/A   Clear
1:15 AM 64.4 °F - 62.6 °F 94% 30.19 in 10.0 mi SW 4.6 mph - N/A   Clear
1:35 AM 64.4 °F - 60.8 °F 88% 30.18 in 10.0 mi WSW 3.5 mph - N/A   Clear
1:55 AM 62.6 °F - 60.8 °F 94% 30.17 in 10.0 mi West 4.6 mph - N/A   Clear
2:35 AM 64.4 °F - 62.6 °F 94% 30.18 in 10.0 mi West 5.8 mph - N/A   Clear
2:55 AM 64.4 °F - 62.6 °F 94% 30.17 in 10.0 mi West 8.1 mph - N/A   Clear
3:15 AM 64.4 °F - 62.6 °F 94% 30.18 in 10.0 mi West 8.1 mph - N/A   Clear
3:35 AM 64.4 °F - 62.6 °F 94% 30.18 in 10.0 mi West 8.1 mph - N/A   Clear
3:55 AM 64.4 °F - 62.6 °F 94% 30.18 in 10.0 mi West 9.2 mph - N/A   Clear
4:15 AM 64.4 °F - 62.6 °F 94% 30.18 in 10.0 mi WNW 6.9 mph - N/A   Clear
4:35 AM 64.4 °F - 62.6 °F 94% 30.18 in 10.0 mi NW 6.9 mph - N/A   Clear
4:55 AM 62.6 °F - 62.6 °F 100% 30.18 in 10.0 mi NW 5.8 mph - N/A   Clear
5:15 AM 62.6 °F - 62.6 °F 100% 30.18 in 10.0 mi WNW 6.9 mph - N/A   Clear
5:35 AM 62.6 °F - 62.6 °F 100% 30.18 in 10.0 mi West 8.1 mph - N/A   Clear
5:55 AM 62.6 °F - 62.6 °F 100% 30.20 in 7.0 mi West 6.9 mph - N/A   Clear
6:15 AM 62.6 °F - 62.6 °F 100% 30.20 in 7.0 mi West 6.9 mph - N/A   Clear
6:35 AM 62.6 °F - 62.6 °F 100% 30.20 in 7.0 mi West 6.9 mph - N/A   Clear
6:55 AM 62.6 °F - 62.6 °F 100% 30.20 in 7.0 mi Calm Calm - N/A   Clear
7:55 AM 69.8 °F - 66.2 °F 88% 30.21 in 10.0 mi WNW 6.9 mph - N/A   Clear
8:15 AM 71.6 °F - 68.0 °F 88% 30.20 in 10.0 mi NNW 5.8 mph - N/A   Clear
8:35 AM 73.4 °F - 68.0 °F 83% 30.21 in 10.0 mi NW 5.8 mph - N/A   Clear
8:55 AM 77.0 °F - 68.0 °F 74% 30.21 in 10.0 mi NW 6.9 mph - N/A   Clear
9:15 AM 78.8 °F - 68.0 °F 69% 30.21 in 10.0 mi NNW 4.6 mph - N/A   Clear
9:35 AM 80.6 °F 83.2 °F 68.0 °F 65% 30.21 in 10.0 mi NNW 4.6 mph - N/A   Clear
9:55 AM 82.4 °F 84.6 °F 66.2 °F 58% 30.20 in 10.0 mi NNW 4.6 mph - N/A   Clear
10:15 AM 86.0 °F 87.3 °F 64.4 °F 48% 30.20 in 10.0 mi North 6.9 mph - N/A   Clear
10:35 AM 87.8 °F 87.6 °F 60.8 °F 40% 30.19 in 10.0 mi NNW 5.8 mph - N/A   Clear
10:55 AM 89.6 °F 88.1 °F 57.2 °F 33% 30.19 in 10.0 mi North 6.9 mph - N/A   Clear
11:15 AM 89.6 °F 87.7 °F 55.4 °F 31% 30.19 in 10.0 mi North 4.6 mph - N/A   Clear
11:35 AM 89.6 °F 87.7 °F 55.4 °F 31% 30.19 in 10.0 mi NE 4.6 mph - N/A   Clear
11:55 AM 91.4 °F 89.4 °F 55.4 °F 29% 30.18 in 10.0 mi NNW 6.9 mph - N/A   Clear
12:15 PM 91.4 °F 89.9 °F 57.2 °F 31% 30.18 in 10.0 mi North 10.4 mph - N/A   Clear
12:35 PM 91.4 °F 89.9 °F 57.2 °F 31% 30.18 in 10.0 mi North 9.2 mph - N/A   Clear
12:55 PM 91.4 °F 89.9 °F 57.2 °F 31% 30.17 in 10.0 mi Calm Calm - N/A   Clear
1:15 PM 95.0 °F 93.7 °F 57.2 °F 28% 30.17 in 10.0 mi North 4.6 mph - N/A   Clear
1:35 PM 95.0 °F 94.4 °F 59.0 °F 30% 30.16 in 10.0 mi NE 9.2 mph 17.3 mph N/A   Clear
1:55 PM 93.2 °F 92.6 °F 59.0 °F 32% 30.15 in 10.0 mi NE 4.6 mph - N/A   Clear
2:15 PM 95.0 °F 94.4 °F 59.0 °F 30% 30.14 in 10.0 mi NW 11.5 mph 17.3 mph N/A   Scattered Clouds
2:35 PM 95.0 °F 94.4 °F 59.0 °F 30% 30.14 in 10.0 mi North 9.2 mph - N/A   Scattered Clouds
2:55 PM 93.2 °F 92.6 °F 59.0 °F 32% 30.13 in 10.0 mi WNW 3.5 mph - N/A   Scattered Clouds
3:15 PM 91.4 °F 90.7 °F 59.0 °F 34% 30.12 in 10.0 mi ENE 4.6 mph - N/A   Scattered Clouds
3:35 PM 96.8 °F 97.1 °F 60.8 °F 30% 30.11 in 10.0 mi NNE 10.4 mph 21.9 mph N/A   Scattered Clouds
3:55 PM 95.0 °F 94.4 °F 59.0 °F 30% 30.11 in 10.0 mi NNE 12.7 mph - N/A   Clear
4:15 PM 95.0 °F 95.2 °F 60.8 °F 32% 30.10 in 10.0 mi ENE 12.7 mph 17.3 mph N/A   Scattered Clouds
4:35 PM 95.0 °F 95.2 °F 60.8 °F 32% 30.09 in 10.0 mi NNE 8.1 mph 19.6 mph N/A   Scattered Clouds
4:55 PM 95.0 °F 94.4 °F 59.0 °F 30% 30.09 in 10.0 mi NE 9.2 mph 17.3 mph N/A   Scattered Clouds
5:15 PM 95.0 °F 94.4 °F 59.0 °F 30% 30.09 in 10.0 mi NNE 10.4 mph 16.1 mph N/A   Clear
5:35 PM 95.0 °F 93.7 °F 57.2 °F 28% 30.08 in 10.0 mi NE 16.1 mph - N/A   Clear
5:55 PM 95.0 °F 93.0 °F 55.4 °F 26% 30.08 in 10.0 mi North 12.7 mph 21.9 mph N/A   Clear
6:15 PM 93.2 °F 91.3 °F 55.4 °F 28% 30.08 in 10.0 mi NNE 9.2 mph - N/A   Clear
6:35 PM 91.4 °F 89.4 °F 55.4 °F 29% 30.08 in 10.0 mi ENE 18.4 mph - N/A   Clear
6:55 PM 91.4 °F 89.4 °F 55.4 °F 29% 30.08 in 10.0 mi NE 16.1 mph 23.0 mph N/A   Clear
7:15 PM 89.6 °F 87.3 °F 53.6 °F 29% 30.09 in 10.0 mi NNE 13.8 mph - N/A   Clear
7:35 PM 89.6 °F 87.7 °F 55.4 °F 31% 30.08 in 10.0 mi NE 15.0 mph 21.9 mph N/A   Clear
7:55 PM 87.8 °F 85.7 °F 53.6 °F 31% 30.09 in 10.0 mi NE 13.8 mph - N/A   Clear
8:15 PM 86.0 °F 84.2 °F 53.6 °F 33% 30.09 in 10.0 mi ENE 19.6 mph - N/A   Clear
8:35 PM 84.2 °F 82.8 °F 53.6 °F 35% 30.09 in 10.0 mi ENE 13.8 mph - N/A   Clear
8:55 PM 82.4 °F 81.4 °F 53.6 °F 37% 30.10 in 10.0 mi ENE 12.7 mph 19.6 mph N/A   Clear
9:15 PM 80.6 °F 80.3 °F 53.6 °F 39% 30.11 in 10.0 mi NE 10.4 mph - N/A   Clear
9:35 PM 78.8 °F - 53.6 °F 42% 30.11 in 10.0 mi ENE 8.1 mph - N/A   Clear
9:55 PM 77.0 °F - 55.4 °F 47% 30.12 in 10.0 mi ENE 5.8 mph - N/A   Clear
10:15 PM 73.4 °F - 55.4 °F 53% 30.12 in 10.0 mi NE 4.6 mph - N/A   Clear
10:35 PM 73.4 °F - 55.4 °F 53% 30.12 in 10.0 mi NE 8.1 mph - N/A   Clear
10:55 PM 73.4 °F - 55.4 °F 53% 30.13 in 10.0 mi ENE 6.9 mph - N/A   Clear
11:15 PM 73.4 °F - 55.4 °F 53% 30.13 in 10.0 mi ENE 5.8 mph - N/A   Clear
11:35 PM 71.6 °F - 55.4 °F 57% 30.13 in 10.0 mi NE 5.8 mph - N/A   Clear
11:55 PM 71.6 °F - 55.4 °F 57% 30.13 in 10.0 mi NE 5.8 mph - N/A   Clear